Theta_e
353 352 353 354 353 353 354 353 352 351 343 342 339 339 342 346 345 345 342 340 341 341 341 340 340 341 342 343 341 341 342 341 341 342 341 341 344 344 343 342 344 343 342
354 353 354 354 354 356 356 354 352 350 346 342 338 338 341 343 345 344 344 345 343 342 342 340 340 339 340 340 341 340 341 340 341 341 336 335 342 342 340 341 344 342 339
355 355 357 358 358 356 358 356 353 349 344 340 339 338 340 343 343 345 344 344 344 343 343 343 342 340 339 339 339 339 340 340 341 341 343 341 339 339 341 343 344 341 341
357 356 358 358 358 354 349 350 349 348 342 339 338 338 342 343 345 346 344 343 342 342 345 343 341 341 340 339 339 339 339 339 339 341 342 340 339 340 341 342 344 341 343
357 358 357 356 356 353 350 352 350 339 341 340 338 338 343 347 345 345 342 343 344 343 343 339 339 340 341 341 338 339 339 339 339 340 340 339 339 342 341 341 341 341 344
358 358 358 357 354 354 353 352 341 337 338 339 341 347 346 345 340 341 342 342 342 343 341 340 341 340 341 340 339 339 338 338 339 340 340 339 339 340 338 341 339 338 339
358 358 357 353 354 352 348 346 341 338 338 342 348 347 338 345 346 345 339 342 341 341 340 340 341 341 341 340 338 338 338 338 339 340 340 339 338 339 338 340 340 338 339
355 355 355 354 353 349 344 343 338 339 342 347 346 343 346 346 345 343 340 340 341 340 339 339 341 340 340 341 341 340 339 338 338 338 338 336 337 337 338 341 340 339 340
353 353 353 354 350 348 344 340 338 340 346 346 344 339 340 341 339 341 340 340 339 340 338 339 340 340 340 341 340 341 341 340 339 339 338 337 336 337 338 341 341 340 339
352 352 352 351 350 348 345 346 346 345 346 347 341 342 342 341 341 341 339 336 340 341 340 340 338 340 341 341 341 341 341 340 340 341 340 339 339 339 339 341 341 340 339
352 352 352 350 350 348 350 350 347 349 349 346 345 344 345 343 340 340 339 338 339 335 341 339 338 337 338 337 337 337 338 339 339 338 340 340 339 339 339 339 338 337 340
351 350 350 349 349 349 348 345 344 345 348 346 344 345 344 343 339 339 337 339 339 335 337 336 334 335 335 337 336 336 336 337 336 338 338 337 338 338 338 337 337 336 337
350 349 349 349 348 349 344 333 339 347 347 346 343 345 345 344 342 338 334 339 338 335 332 333 333 333 332 335 335 336 336 336 335 335 336 336 335 336 337 336 337 337 337
349 349 349 348 350 350 346 341 348 348 347 346 345 345 344 344 343 339 338 336 335 332 333 332 331 331 330 331 332 333 333 334 334 334 334 334 334 334 334 334 335 334 334
351 349 349 348 349 348 346 347 348 346 346 346 345 345 344 344 342 341 338 333 332 329 332 329 330 329 329 328 328 330 331 331 331 331 331 331 331 332 333 333 333 332 333
352 350 349 349 348 346 344 347 346 347 347 347 346 346 345 345 344 342 341 337 332 335 329 326 328 326 327 329 329 328 330 330 328 328 328 328 329 329 329 330 330 331 330
353 352 350 350 348 340 346 349 347 348 348 346 347 346 346 345 343 342 341 340 335 337 329 325 326 325 325 326 327 327 326 326 327 326 326 326 324 323 324 326 327 327 327
354 353 352 351 339 347 349 349 348 349 349 347 345 344 345 345 344 343 343 340 340 334 331 326 326 325 325 326 327 327 326 326 326 326 324 323 321 320 319 319 320 320 320
354 353 348 341 348 351 350 349 350 349 348 344 343 344 342 342 345 344 343 343 340 336 333 330 326 325 325 327 328 327 325 324 324 323 320 320 320 321 322 321 320 319 318
352 348 347 348 350 347 350 350 349 347 345 344 343 338 328 328 342 343 343 340 339 335 333 331 328 325 324 325 326 326 325 323 322 320 320 318 319 322 322 322 321 319 313
349 349 349 350 348 346 348 347 346 345 344 341 332 329 328 329 335 338 338 338 336 334 333 332 329 326 325 325 325 325 325 324 324 323 322 320 320 319 320 320 320 314 313
349 349 347 345 344 344 343 343 344 342 337 330 329 329 329 331 336 335 335 335 334 334 332 332 328 327 326 325 325 325 325 324 322 322 322 320 320 319 317 317 315 313 311
346 344 343 341 338 339 340 341 339 333 329 329 329 329 330 330 333 331 333 334 333 333 331 330 328 327 326 326 326 325 324 323 322 321 319 316 312 308 304 307 309 309 309
340 339 339 337 336 338 337 334 331 329 328 328 328 329 329 329 330 330 330 330 330 329 328 327 327 326 325 325 324 322 322 322 319 318 315 310 309 309 308 308 307 307 308
337 337 336 336 335 333 330 328 327 327 327 327 328 328 328 328 328 328 327 326 326 326 326 325 324 324 323 322 321 320 319 317 315 311 310 310 309 310 309 308 308 307 307
336 334 333 331 330 328 327 326 326 325 325 326 326 326 325 324 324 324 324 324 324 324 323 323 322 322 321 321 320 319 317 316 312 311 311 311 309 308 308 307 307 307 307
Wind_Speed
21 17 13 18 19 20 19 10 14 15 8 9 2 7 8 4 5 8 12 14 19 15 14 17 20 21 23 22 23 24 20 17 21 18 20 21 26 22 18 20 21 19 17
24 22 16 21 21 18 13 11 9 7 9 3 2 10 3 2 7 10 9 8 11 12 17 14 16 19 20 20 22 21 21 20 22 27 21 25 18 18 19 24 24 21 17
30 23 19 17 13 10 11 11 7 7 4 5 5 3 3 5 5 4 5 10 14 15 15 14 17 14 16 17 18 20 22 22 18 20 19 12 13 12 14 25 27 22 18
29 25 20 15 13 7 9 8 4 4 8 9 6 2 3 2 4 3 6 8 8 11 14 19 18 15 15 14 13 14 17 21 22 21 21 22 16 7 3 9 19 20 19
30 26 20 16 11 8 10 6 3 8 11 10 9 7 4 2 1 4 4 7 9 12 16 17 14 12 11 14 12 11 13 17 18 18 21 23 23 22 12 8 9 11 9
25 22 19 15 15 12 13 11 9 15 13 10 7 3 4 3 3 1 5 6 10 15 15 11 10 11 13 12 6 6 6 10 14 16 17 19 18 16 14 15 11 9 4
32 27 23 19 22 20 15 10 14 15 11 8 6 3 4 6 3 4 6 5 10 12 14 10 8 9 12 9 5 2 2 5 8 10 12 14 17 19 14 13 9 10 9
30 27 22 23 21 16 14 11 19 11 9 11 7 5 5 2 2 6 5 7 8 11 12 9 7 7 8 7 5 5 4 1 3 6 10 13 16 16 17 14 8 10 10
26 21 19 20 18 15 15 14 16 13 12 8 4 5 3 2 3 7 9 7 8 10 11 11 9 10 9 7 5 6 5 2 1 3 7 7 8 14 14 14 9 10 7
24 20 20 16 16 15 13 14 14 15 13 8 4 6 6 6 5 6 10 6 10 10 13 16 14 11 12 12 9 8 6 3 3 2 1 4 6 9 12 12 10 10 8
30 28 22 16 16 11 11 10 9 13 13 5 8 7 4 2 4 6 10 7 6 10 13 14 14 14 11 11 10 8 8 5 5 4 5 4 1 4 9 11 10 11 8
33 29 22 17 20 21 19 11 7 10 10 7 5 8 5 0 4 6 7 7 11 11 13 11 13 13 14 13 12 12 10 9 9 9 6 5 1 3 4 7 8 8 9
32 29 26 21 23 25 15 15 21 15 12 11 7 8 4 1 7 4 8 6 7 8 11 11 12 14 13 15 15 13 11 11 11 10 7 7 6 3 1 2 3 4 6
29 31 29 23 24 22 11 18 20 16 11 9 11 9 5 3 7 5 4 3 5 6 9 10 12 11 12 14 15 14 14 13 12 11 9 8 7 7 6 5 4 4 2
23 29 28 27 18 17 15 16 24 16 11 10 8 6 7 5 7 6 4 3 2 7 5 6 9 9 10 13 12 11 11 11 11 11 10 10 10 10 9 8 8 8 7
22 26 24 22 25 20 17 16 18 16 10 12 8 8 8 8 8 8 4 1 3 4 1 5 5 6 8 9 9 10 10 10 12 11 10 11 11 10 9 7 5 5 5
23 24 21 21 18 17 16 13 17 15 15 14 12 10 11 8 8 9 5 2 2 4 2 2 4 5 7 7 8 8 8 9 9 8 9 8 12 11 10 9 9 7 6
28 25 18 21 19 20 16 19 18 15 13 13 14 14 13 10 11 9 10 6 4 4 2 3 4 4 5 5 4 7 9 6 5 4 5 5 7 9 11 9 8 9 9
26 20 17 23 24 22 21 20 18 16 15 14 13 12 13 13 10 7 10 8 4 4 4 2 5 5 6 6 4 3 6 4 2 4 5 4 4 7 9 7 6 7 10
21 24 22 24 25 22 25 21 18 15 13 10 7 8 6 5 10 8 10 6 5 4 8 6 3 5 6 7 4 2 2 5 5 3 3 3 2 3 4 6 8 6 12
29 27 19 23 21 22 20 19 16 14 10 8 6 3 2 4 8 8 8 8 5 7 8 8 6 6 6 7 6 6 2 4 4 6 4 1 0 1 2 2 2 5 7
22 22 18 16 14 15 14 14 12 10 7 5 2 1 1 3 8 8 9 10 10 11 8 9 7 6 6 6 7 6 4 6 7 7 7 2 2 1 1 1 5 5 3
12 12 11 12 14 12 11 9 8 6 4 2 2 3 3 5 8 8 9 10 10 15 9 6 5 2 4 6 6 6 7 9 9 6 1 2 4 4 5 6 5 3 1
12 11 9 14 12 10 8 8 6 4 3 3 4 5 5 6 8 8 8 9 12 10 8 6 6 5 4 3 3 3 3 2 1 1 3 6 8 8 7 5 4 3 1
9 6 8 11 10 9 8 6 6 6 7 7 8 8 8 8 8 9 7 5 4 5 5 4 3 3 3 3 3 2 1 2 5 7 8 7 5 3 1 3 6 6 2
12 10 9 10 11 8 8 9 7 6 8 11 11 11 11 12 12 11 9 7 5 3 1 2 3 3 2 2 2 1 3 6 7 5 3 2 3 4 3 3 3 5 4
Wind_Direction
162 166 184 187 198 204 204 224 246 229 226 216 223 284 200 237 282 287 278 271 268 303 290 292 290 285 276 271 264 272 267 253 238 236 235 245 251 242 248 257 253 259 261
163 165 175 182 191 194 206 237 268 262 279 159 20 148 174 262 301 307 306 287 288 317 323 315 316 305 289 276 266 259 255 253 251 245 244 239 242 236 250 255 251 251 267
157 162 163 165 187 227 231 247 237 282 205 148 162 158 213 271 323 11 310 329 332 329 313 305 313 317 311 290 275 262 253 252 242 237 214 224 237 221 248 248 240 246 258
160 168 174 189 205 226 220 208 218 263 192 170 187 196 233 353 16 339 343 327 324 320 299 310 313 318 316 305 283 264 253 244 245 236 237 243 239 229 239 215 225 242 255
167 173 184 199 214 184 187 190 200 145 160 183 213 214 236 173 139 285 277 2 338 331 330 327 325 328 330 320 288 264 257 245 244 245 247 241 238 246 247 234 226 238 253
166 177 185 187 177 172 182 208 173 140 144 159 166 186 216 243 256 330 336 329 315 323 331 338 344 338 345 343 313 258 239 236 233 236 240 238 238 235 253 248 241 249 283
164 171 176 175 179 184 201 194 174 153 147 149 153 209 126 87 15 333 341 337 334 327 340 342 350 353 354 13 30 9 219 221 229 229 233 237 236 237 237 250 244 259 245
167 174 180 179 187 189 185 177 178 171 154 149 176 174 158 93 311 327 332 356 347 352 354 3 5 2 2 21 51 73 65 76 249 243 244 253 242 228 234 252 245 270 238
164 172 180 185 186 186 184 173 171 166 153 165 185 144 134 247 326 13 4 10 7 4 14 32 32 27 33 36 46 43 37 32 186 214 246 256 227 220 231 241 228 246 242
167 168 179 186 189 197 181 165 157 150 150 167 155 108 73 47 57 358 355 6 37 25 37 40 45 49 53 57 63 63 59 50 29 16 292 247 226 223 225 237 218 215 228
166 166 173 179 195 189 180 190 178 164 166 150 136 104 91 64 9 359 354 50 31 31 51 46 43 47 56 54 52 59 64 74 73 76 76 73 87 229 223 232 249 248 239
168 166 165 172 183 179 183 226 175 181 153 159 143 150 176 315 2 6 16 46 56 35 56 45 49 45 56 67 69 69 70 66 67 76 65 63 111 223 221 231 231 239 248
165 162 160 171 185 188 159 71 151 170 161 171 163 148 167 339 1 30 33 57 48 37 51 43 45 50 55 61 66 68 66 65 63 58 56 57 55 55 23 286 273 254 251
162 161 160 167 191 196 151 155 154 171 168 166 138 161 201 303 337 7 24 57 55 47 54 43 45 50 54 63 64 67 69 73 74 69 63 58 55 64 72 61 62 67 75
159 157 160 167 187 162 138 157 161 168 153 165 162 193 211 256 300 314 331 2 36 74 60 36 45 54 53 61 64 65 65 68 67 64 66 68 67 72 77 81 86 81 81
159 158 164 165 167 166 163 151 173 159 148 166 198 203 232 228 274 285 260 311 82 97 66 55 67 68 63 60 64 63 65 66 64 72 72 72 76 70 65 66 72 85 87
182 170 175 180 173 164 158 165 161 161 170 180 186 192 195 236 258 258 238 335 333 155 213 73 87 79 77 67 73 63 57 69 82 63 56 68 68 66 66 71 71 70 66
199 184 184 184 170 171 186 181 183 176 190 207 217 216 225 223 216 231 242 238 311 228 219 149 127 113 110 103 82 59 44 60 84 103 94 86 68 73 65 62 65 67 72
190 188 168 168 171 186 181 184 180 192 209 221 236 249 267 248 231 226 238 225 265 222 209 207 138 145 143 139 147 64 33 20 89 90 89 109 67 62 58 51 57 71 72
173 163 169 176 187 194 198 193 197 205 217 232 267 278 266 229 205 209 225 258 213 226 211 218 176 170 171 172 178 247 10 38 62 54 57 112 98 48 27 16 15 50 93
165 173 185 191 204 207 195 194 202 212 232 259 266 256 224 173 175 193 222 206 227 234 215 235 219 201 188 195 195 195 271 290 359 25 20 67 146 244 249 286 9 106 103
165 174 178 170 177 191 199 197 203 223 232 230 227 102 109 150 168 189 214 219 205 208 244 244 223 218 214 215 210 203 220 239 279 314 336 338 332 294 149 136 140 152 150
179 198 201 195 191 183 197 207 214 204 181 145 111 104 116 143 160 177 193 215 223 219 220 247 233 249 221 229 222 230 240 246 266 286 322 73 71 61 110 136 159 161 68
177 184 201 175 181 182 181 190 182 161 146 125 117 111 114 125 143 163 185 196 199 213 238 246 254 254 237 205 192 200 221 226 211 140 113 92 79 72 71 34 359 255 280
183 196 183 173 173 169 159 169 168 152 141 125 117 111 110 112 118 129 139 157 191 208 218 219 218 213 184 182 181 171 175 148 124 120 110 95 68 18 62 55 11 3 282
190 187 193 181 165 165 162 149 134 107 119 118 111 104 99 94 92 89 96 106 121 133 163 164 171 172 182 204 207 196 141 143 141 132 111 127 110 73 60 58 350 287 294